When you browse on this site, cookies collect data to enhance your experience and personalize the content and advertising you see.
Visit our Privacy Policy to learn more. By continuing to use the site, you agree to this use of cookies and data.
  • en Suisse
  • Liste des pays
  • À 7 jours
  • Température de l'eau
  • Carte météo
  • Widgets météo
  • user-avatar
    Se connecter

    Météo par heure à Manchester

    Ce jour, 13 Décembre, Vendredi

    Heure Température Précipitation Vent Pression Humidité
    00:00 +5°C° 0 mm 2 m/s 722 mmHg 95%
    01:00 +5°C° 0.3 mm 2 m/s 722 mmHg 95%
    02:00 +4°C° 0.3 mm 3 m/s 722 mmHg 95%
    03:00 +4°C° 0.3 mm 3 m/s 723 mmHg 94%
    04:00 +5°C° 0.6 mm 4 m/s 723 mmHg 92%
    05:00 +5°C° 0.6 mm 5 m/s 724 mmHg 90%
    06:00 +5°C° 0 mm 5 m/s 725 mmHg 87%
    07:00 +5°C° 0.3 mm 5 m/s 725 mmHg 87%
    08:00 +4°C° 0.3 mm 6 m/s 726 mmHg 86%
    09:00 +4°C° 0.3 mm 7 m/s 726 mmHg 86%
    10:00 +5°C° 0.3 mm 7 m/s 727 mmHg 85%
    11:00 +5°C° 0.3 mm 7 m/s 727 mmHg 83%
    12:00 +5°C° 0 mm 8 m/s 728 mmHg 85%
    13:00 +5°C° 0.6 mm 8 m/s 728 mmHg 85%
    14:00 +5°C° 0.6 mm 8 m/s 728 mmHg 85%
    15:00 +5°C° 0.6 mm 8 m/s 728 mmHg 85%
    16:00 +5°C° 0.4 mm 8 m/s 728 mmHg 84%
    17:00 +4°C° 0.4 mm 7 m/s 728 mmHg 83%
    18:00 +4°C° 0.4 mm 7 m/s 728 mmHg 81%
    19:00 +4°C° 0 mm 7 m/s 728 mmHg 80%
    20:00 +3°C° 0 mm 6 m/s 728 mmHg 79%
    21:00 +3°C° 0 mm 6 m/s 728 mmHg 77%
    22:00 +3°C° 0.1 mm 6 m/s 728 mmHg 78%
    23:00 +3°C° 0.1 mm 6 m/s 728 mmHg 78%

    Demain, 14 Décembre, Samedi

    Heure Température Précipitation Vent Pression Humidité
    00:00 +3°C° 0.1 mm 6 m/s 728 mmHg 79%
    01:00 +3°C° 0.3 mm 7 m/s 729 mmHg 77%
    02:00 +3°C° 0.3 mm 7 m/s 729 mmHg 74%
    03:00 +2°C° 0.3 mm 8 m/s 729 mmHg 72%
    04:00 +2°C° 0.2 mm 8 m/s 730 mmHg 70%
    05:00 +2°C° 0.2 mm 8 m/s 730 mmHg 69%
    06:00 +1°C° 0.2 mm 9 m/s 731 mmHg 67%
    07:00 +1°C° 0.1 mm 8 m/s 731 mmHg 66%
    08:00 +1°C° 0.1 mm 8 m/s 732 mmHg 66%
    09:00 +2°C° 0.1 mm 7 m/s 732 mmHg 65%
    10:00 +1°C° 0.5 mm 8 m/s 733 mmHg 67%
    11:00 +1°C° 0.5 mm 8 m/s 733 mmHg 70%
    12:00 +1°C° 0.5 mm 9 m/s 734 mmHg 72%
    13:00 +1°C° 0.1 mm 8 m/s 734 mmHg 69%
    14:00 +2°C° 0.1 mm 7 m/s 735 mmHg 66%
    15:00 +2°C° 0.1 mm 7 m/s 735 mmHg 62%
    16:00 +2°C° 0 mm 6 m/s 734 mmHg 65%
    17:00 +1°C° 0 mm 5 m/s 734 mmHg 67%
    18:00 +1°C° 0 mm 4 m/s 733 mmHg 70%
    19:00 +1°C° 1.5 mm 4 m/s 733 mmHg 78%
    20:00 +1°C° 1.5 mm 4 m/s 732 mmHg 86%
    21:00 +1°C° 1.5 mm 5 m/s 731 mmHg 95%
    22:00 +1°C° 0.6 mm 5 m/s 731 mmHg 93%
    23:00 +1°C° 0.6 mm 5 m/s 731 mmHg 92%

    Après-demain, 15 Décembre, Dimanche

    Heure Température Précipitation Vent Pression Humidité
    00:00 +1°C° 0.6 mm 5 m/s 730 mmHg 91%
    01:00 +1°C° 0.4 mm 5 m/s 731 mmHg 91%
    02:00 0°C° 0.4 mm 5 m/s 731 mmHg 91%
    03:00 0°C° 0.4 mm 5 m/s 732 mmHg 92%
    04:00 0°C° 0.1 mm 5 m/s 733 mmHg 88%
    05:00 0°C° 0.1 mm 5 m/s 735 mmHg 84%
    06:00 0°C° 0.1 mm 4 m/s 736 mmHg 80%
    07:00 0°C° 0 mm 4 m/s 737 mmHg 80%
    08:00 0°C° 0 mm 5 m/s 737 mmHg 80%
    09:00 0°C° 0 mm 5 m/s 738 mmHg 79%
    10:00 0°C° 0.4 mm 5 m/s 738 mmHg 82%
    11:00 +1°C° 0.4 mm 6 m/s 738 mmHg 85%
    12:00 0°C° 0.4 mm 7 m/s 737 mmHg 88%
    13:00 +2°C° 0.3 mm 6 m/s 737 mmHg 86%
    14:00 +2°C° 0.3 mm 6 m/s 737 mmHg 83%
    15:00 +3°C° 0.3 mm 6 m/s 737 mmHg 80%
    16:00 +2°C° 0.1 mm 6 m/s 737 mmHg 80%
    17:00 +2°C° 0.1 mm 5 m/s 738 mmHg 80%
    18:00 +2°C° 0.1 mm 5 m/s 738 mmHg 79%
    19:00 +2°C° 0.2 mm 5 m/s 738 mmHg 82%
    20:00 +2°C° 0.2 mm 5 m/s 738 mmHg 84%
    21:00 +2°C° 0.2 mm 6 m/s 739 mmHg 86%
    22:00 +2°C° 0.3 mm 5 m/s 738 mmHg 85%
    23:00 +2°C° 0.3 mm 5 m/s 738 mmHg 85%

    16 Décembre, Lundi

    Heure Température Précipitation Vent Pression Humidité
    00:00 +2°C° 0.3 mm 5 m/s 738 mmHg 85%
    01:00 +2°C° 0 mm 6 m/s 738 mmHg 83%
    02:00 +2°C° 0 mm 6 m/s 738 mmHg 82%
    03:00 +2°C° 0 mm 6 m/s 738 mmHg 81%
    04:00 +2°C° 0 mm 6 m/s 738 mmHg 80%
    05:00 +2°C° 0 mm 6 m/s 738 mmHg 80%
    06:00 +2°C° 0 mm 6 m/s 739 mmHg 79%
    07:00 +2°C° 0.1 mm 5 m/s 739 mmHg 81%
    08:00 +2°C° 0.1 mm 5 m/s 740 mmHg 82%
    09:00 +3°C° 0.1 mm 4 m/s 741 mmHg 84%
    10:00 +3°C° 0 mm 4 m/s 742 mmHg 83%
    11:00 +3°C° 0 mm 4 m/s 742 mmHg 81%
    12:00 +4°C° 0 mm 4 m/s 742 mmHg 80%
    13:00 +4°C° 0 mm 4 m/s 743 mmHg 81%
    14:00 +4°C° 0 mm 4 m/s 743 mmHg 82%
    15:00 +3°C° 0 mm 3 m/s 743 mmHg 82%
    16:00 +3°C° 0 mm 3 m/s 743 mmHg 84%
    17:00 +3°C° 0 mm 3 m/s 743 mmHg 85%
    18:00 +2°C° 0 mm 3 m/s 743 mmHg 86%
    19:00 +2°C° 0 mm 3 m/s 743 mmHg 87%
    20:00 +3°C° 0 mm 2 m/s 744 mmHg 88%
    21:00 +3°C° 0 mm 2 m/s 744 mmHg 89%
    22:00 +3°C° 0 mm 2 m/s 744 mmHg 89%
    23:00 +4°C° 0 mm 1 m/s 744 mmHg 88%

    17 Décembre, Mardi

    Heure Température Précipitation Vent Pression Humidité
    00:00 +3°C° 0 mm 1 m/s 744 mmHg 88%
    01:00 +3°C° 0 mm 1 m/s 744 mmHg 87%
    02:00 +3°C° 0 mm 1 m/s 744 mmHg 87%
    03:00 +3°C° 0 mm 1 m/s 744 mmHg 86%
    04:00 +3°C° 0 mm 1 m/s 744 mmHg 86%
    05:00 +2°C° 0 mm 0 m/s 744 mmHg 85%
    06:00 +2°C° 0 mm 0 m/s 743 mmHg 85%
    07:00 +2°C° 0 mm 0 m/s 744 mmHg 85%
    08:00 +3°C° 0 mm 1 m/s 744 mmHg 86%
    09:00 +3°C° 0 mm 1 m/s 744 mmHg 86%
    10:00 +4°C° 0 mm 1 m/s 745 mmHg 84%
    11:00 +4°C° 0 mm 1 m/s 745 mmHg 83%
    12:00 +5°C° 0 mm 1 m/s 745 mmHg 81%
    13:00 +5°C° 0 mm 1 m/s 745 mmHg 83%
    14:00 +3°C° 0 mm 2 m/s 745 mmHg 84%
    15:00 +3°C° 0 mm 2 m/s 745 mmHg 86%
    16:00 +3°C° 0 mm 2 m/s 746 mmHg 87%
    17:00 +3°C° 0 mm 2 m/s 746 mmHg 89%
    18:00 +2°C° 0 mm 2 m/s 746 mmHg 91%
    19:00 +2°C° 0 mm 2 m/s 747 mmHg 91%
    20:00 +2°C° 0 mm 2 m/s 747 mmHg 91%
    21:00 +2°C° 0 mm 2 m/s 748 mmHg 91%
    22:00 +2°C° 0 mm 2 m/s 748 mmHg 90%
    23:00 +2°C° 0 mm 2 m/s 748 mmHg 90%

    18 Décembre, Mercredi

    Heure Température Précipitation Vent Pression Humidité
    00:00 +2°C° 0 mm 2 m/s 749 mmHg 90%
    01:00 +2°C° 0 mm 2 m/s 749 mmHg 90%
    02:00 +1°C° 0 mm 2 m/s 749 mmHg 91%
    03:00 +1°C° 0 mm 2 m/s 749 mmHg 91%
    04:00 +1°C° 0 mm 2 m/s 749 mmHg 91%
    05:00 +1°C° 0 mm 2 m/s 749 mmHg 91%
    06:00 +1°C° 0 mm 2 m/s 750 mmHg 91%
    07:00 +1°C° 0 mm 2 m/s 750 mmHg 92%
    08:00 +1°C° 0 mm 2 m/s 750 mmHg 92%
    09:00 +1°C° 0 mm 2 m/s 750 mmHg 93%
    10:00 +2°C° 0 mm 2 m/s 751 mmHg 90%
    11:00 +3°C° 0 mm 2 m/s 751 mmHg 88%
    12:00 +4°C° 0 mm 2 m/s 751 mmHg 85%
    13:00 +4°C° 0 mm 2 m/s 751 mmHg 87%
    14:00 +3°C° 0 mm 2 m/s 750 mmHg 88%
    15:00 +3°C° 0 mm 2 m/s 750 mmHg 89%
    16:00 +3°C° 0 mm 2 m/s 750 mmHg 89%
    17:00 +2°C° 0 mm 2 m/s 750 mmHg 88%
    18:00 +2°C° 0 mm 2 m/s 750 mmHg 88%
    19:00 +2°C° 0 mm 2 m/s 750 mmHg 89%
    20:00 +1°C° 0 mm 3 m/s 750 mmHg 90%
    21:00 +1°C° 0 mm 3 m/s 749 mmHg 90%
    22:00 +1°C° 0 mm 3 m/s 749 mmHg 91%
    23:00 0°C° 0 mm 4 m/s 749 mmHg 91%
    Voir plus